Torna al catalogo

FLOCK 4G 16

AttivoScienzaPO
NORAD 62638·PAYLOAD·🇺🇸 United States

Lanciato Jan 14, 2025 da Vandenberg Space Force Base

Loading…

Prossimi Passaggi (prossime 24 ore)

TLE

In scadenzaSource: Space-Track

Epoca: Sep 7, 2026, 20:06 UTC

1 62638U 25009AF  26250.83760609  .05968266  24647-5  14991-2 0  9991
2 62638  97.3651 346.8474 0014946 274.9589  84.9998 16.28711644 92550

Traccia FLOCK 4G 16 in tempo reale con AllMySat

Download on the App Store